Lid_Strength_Index
3 3 4 4 4 4 4 4 4 4 3 3 3 3 3 3 2 3 3 3 3 2 2 2 2 2 3 7 7 -0 -2 -1 -0 3 4 5 6 6 7 7 7 8 7 6 6 6 6
3 4 4 4 4 4 4 4 4 3 3 3 3 3 3 3 2 2 3 3 4 3 2 2 2 1 5 10 2 -1 -0 0 1 4 5 5 6 5 6 6 7 6 6 6 6 7 6
4 4 4 4 4 4 4 3 3 3 3 3 3 3 3 3 3 3 3 4 4 4 3 2 2 2 6 8 -0 -1 -0 1 3 4 5 5 4 5 4 7 5 6 8 7 7 7 8
4 4 4 4 5 5 4 3 3 3 3 3 3 3 3 3 3 3 3 4 4 3 3 3 1 2 8 3 -1 0 1 2 3 4 4 4 4 4 5 5 8 9 9 11 9 7 7
4 4 5 4 5 5 4 4 3 3 3 3 3 3 3 3 3 3 4 3 2 2 2 1 2 3 6 -0 2 0 1 3 3 4 4 4 5 5 7 8 9 10 11 12 11 7 8
4 4 5 5 5 5 4 4 3 3 3 3 2 3 3 3 3 4 4 3 1 0 1 1 2 6 4 5 3 1 1 2 4 5 5 6 6 6 7 9 13 11 11 11 11 9 9
4 4 4 5 5 4 4 4 3 3 3 2 2 2 3 3 4 4 3 3 6 6 3 7 6 6 6 3 4 3 1 2 4 5 8 7 8 10 8 8 8 10 10 11 10 8 10
4 4 4 5 5 4 4 3 3 3 2 2 2 2 3 3 4 3 4 4 5 6 8 7 6 5 4 4 7 5 1 5 5 8 6 8 9 7 7 8 8 9 10 10 10 7 9
4 4 5 5 4 4 4 3 3 2 2 2 2 2 2 3 3 3 4 4 3 5 8 9 7 7 7 5 7 7 4 4 6 8 7 9 8 6 8 8 9 9 10 9 10 9 9
3 4 4 5 4 4 3 3 2 2 2 2 2 2 2 3 4 3 3 2 3 6 10 10 9 7 7 7 8 5 4 4 6 8 7 8 6 8 8 9 8 11 8 9 9 9 12
3 4 4 5 4 4 3 2 2 2 2 2 2 2 3 3 4 3 2 3 4 6 15 8 8 6 7 7 6 7 6 6 7 7 7 9 8 8 9 9 7 9 7 8 8 9 10
3 4 4 4 4 3 3 2 2 1 2 2 2 2 3 4 4 3 3 3 3 10 15 10 8 9 8 8 8 7 7 6 7 7 8 9 9 8 7 8 6 6 8 9 9 9 12
3 4 4 4 4 3 2 2 1 1 2 2 2 3 4 3 3 2 3 3 9 13 8 10 9 8 9 10 9 9 9 10 10 10 10 10 11 10 9 9 7 7 8 12 13 13 12
3 4 4 4 4 4 2 1 1 1 2 2 3 4 3 2 1 3 4 6 13 10 9 8 8 8 10 9 9 9 9 10 9 10 11 11 13 10 9 10 9 8 8 12 15 14 12
3 3 4 4 4 3 2 1 1 1 2 3 4 3 3 3 3 4 5 10 11 10 8 9 8 9 9 9 8 9 10 10 10 10 10 11 12 9 9 9 9 10 10 9 11 11 11
3 4 4 4 4 3 2 1 1 1 2 3 2 3 4 3 3 5 7 11 9 8 9 8 11 9 10 10 9 9 10 9 9 9 9 10 12 10 9 9 9 9 9 11 10 15 14
2 3 4 4 4 3 2 1 1 1 3 3 3 4 3 4 3 5 9 9 9 7 8 9 10 10 10 10 10 10 10 9 8 8 8 9 9 11 9 11 12 10 10 10 10 11 13
2 3 4 4 4 4 2 1 1 2 3 3 4 6 3 4 6 8 9 9 9 8 7 8 8 10 11 11 11 11 11 9 7 8 10 9 10 12 12 10 10 10 11 12 12 13 11
2 3 4 4 4 4 2 1 1 2 3 2 4 5 2 3 8 8 7 8 7 8 9 9 9 9 10 11 11 10 10 8 7 7 10 9 11 12 12 10 10 11 11 11 12 11 13
2 3 4 4 4 3 2 1 1 2 3 3 4 7 4 5 7 7 8 8 8 6 8 7 8 8 9 10 9 11 10 9 8 7 6 8 11 12 12 12 11 12 12 11 11 11 12
2 3 4 4 4 3 2 1 1 2 2 3 5 7 7 8 7 7 7 8 8 9 7 6 7 8 9 10 10 10 10 9 8 8 8 9 12 11 11 11 11 12 12 12 11 11 11
2 3 4 4 4 3 2 0 1 2 3 3 5 6 6 7 8 7 8 8 8 8 8 8 8 8 8 9 9 10 9 9 9 8 9 9 11 11 12 11 11 11 10 10 10 10 11
3 3 4 4 3 4 2 0 0 1 2 3 3 4 4 8 8 8 8 8 8 7 7 7 7 7 8 8 7 7 7 7 7 8 9 9 10 11 13 12 11 13 10 10 10 10 10
3 4 4 4 3 3 2 -0 -0 1 2 1 2 4 5 8 7 7 7 7 7 7 8 7 7 7 7 5 5 5 6 6 6 7 8 9 10 10 13 12 16 11 8 8 10 9 8
3 4 4 4 4 3 2 -0 -0 0 1 1 2 3 5 8 6 7 7 7 6 6 7 7 6 6 4 6 8 10 9 9 8 8 8 8 9 12 13 13 13 10 9 10 10 11 8
2 3 4 4 4 3 2 0 -0 0 1 1 2 3 3 7 7 5 6 6 7 7 7 6 5 5 5 6 8 12 13 12 12 10 8 8 7 10 12 14 15 11 8 6 7 12 7
3 4 4 4 4 3 2 0 -0 0 1 1 1 2 3 6 4 4 6 7 6 7 7 6 6 6 5 7 10 12 13 11 15 13 12 11 11 12 12 13 11 8 7 6 13 11 6
3 4 4 4 4 3 2 0 0 0 0 1 2 1 2 5 4 4 4 5 6 5 8 6 6 6 7 9 10 11 12 11 12 11 11 11 13 13 13 14 14 6 7 10 8 6 6
3 4 4 5 4 3 2 1 0 0 0 2 2 2 1 3 4 3 3 3 3 4 4 6 6 6 6 8 8 9 11 11 11 14 9 13 10 12 11 10 7 6 7 5 5 6 6